Theta_e
298 298 297 297 297 296 295 295 294 296 296 294 295 295 295 295 294 295 301 301 300 300 300 302 304 307 308 308 310 311 314 316 317 320 319 315 316 316 323 329 331 320 320 322 324 329 330 335 337 335 331 341 339 340
297 297 298 298 297 295 295 295 294 295 295 296 297 295 294 294 295 294 298 300 300 300 300 300 300 302 304 305 306 308 314 316 320 315 315 316 322 320 323 329 325 329 324 321 322 324 331 336 337 339 341 341 337 341
297 299 299 298 296 296 295 294 294 296 296 296 295 294 294 294 294 296 296 296 297 300 302 304 308 307 306 306 305 306 310 318 318 317 316 315 317 317 324 324 327 325 328 330 328 330 333 335 338 338 341 341 337 341
298 298 297 297 297 297 295 295 296 295 294 294 293 293 294 294 296 297 302 300 301 302 299 306 308 307 308 307 308 307 311 314 314 316 317 313 315 315 317 318 320 322 326 326 327 328 332 334 335 338 340 339 337 338
297 298 297 298 297 297 296 294 295 296 294 294 293 293 294 298 298 302 303 303 303 302 300 304 308 310 312 312 311 309 308 309 307 310 314 317 314 314 315 313 317 322 323 326 329 328 330 331 332 337 339 338 338 339
297 297 298 297 296 296 295 294 295 295 294 294 293 294 298 302 297 305 305 304 303 302 302 300 306 312 314 313 312 312 309 306 306 313 312 316 316 318 322 317 317 325 328 327 328 332 332 332 333 332 332 334 337 336
296 296 297 296 296 294 294 293 295 294 294 294 293 297 303 304 300 305 306 305 304 303 304 303 303 312 314 314 312 311 310 309 311 314 314 316 318 319 316 317 319 320 321 328 330 329 331 332 330 334 334 335 335 335
298 298 297 296 294 293 293 294 294 294 294 293 296 303 303 303 303 306 306 305 304 304 305 303 304 310 313 314 314 312 311 310 312 313 313 313 315 318 317 316 318 317 318 319 325 326 325 327 330 331 332 333 334 334
298 298 296 296 294 293 294 294 294 293 295 297 301 305 306 306 307 308 307 306 304 304 305 306 309 309 312 313 313 316 313 309 310 309 310 312 311 314 315 319 318 317 318 317 321 323 322 322 329 330 332 331 333 332
297 297 297 297 295 294 294 294 294 297 302 303 306 307 308 306 308 307 305 306 305 305 305 303 305 305 310 313 312 312 312 311 313 310 311 309 309 313 318 319 320 319 316 322 323 323 321 321 323 328 330 330 331 331
297 296 297 297 295 294 294 294 293 299 303 304 306 306 305 307 306 306 307 307 307 308 307 307 307 306 311 311 310 311 310 310 315 314 313 310 315 317 317 316 318 320 321 319 318 318 318 319 319 322 329 330 331 330
297 296 296 296 295 294 294 294 293 298 300 303 304 304 305 306 306 307 308 309 308 311 311 310 312 311 313 314 313 311 313 310 315 313 316 315 319 315 314 315 315 317 320 321 321 316 316 318 319 321 324 324 327 330
298 296 296 296 294 295 294 294 293 294 297 298 302 304 306 305 300 307 311 312 313 312 313 313 313 313 314 315 313 309 314 313 313 315 318 319 317 316 314 314 315 316 318 319 322 321 316 316 319 321 322 322 324 327
298 297 296 295 294 295 294 293 293 296 301 303 304 296 298 299 302 305 308 308 311 313 312 312 311 311 312 310 312 316 314 313 317 320 319 316 316 314 314 314 315 316 317 319 320 322 320 318 318 320 322 325 326 327
298 297 296 295 295 295 295 293 295 300 303 304 305 298 302 304 306 308 308 309 310 310 310 311 311 310 309 311 311 315 317 318 319 317 315 314 313 314 314 315 315 316 318 319 320 322 319 318 319 321 324 324 323 323
298 297 295 295 295 295 294 294 297 301 303 304 304 303 303 303 305 307 308 310 311 311 310 311 307 307 312 313 314 316 317 319 317 315 313 312 313 313 314 315 317 318 320 320 321 322 319 321 321 323 323 324 323 322
297 296 295 295 296 295 294 299 302 302 303 303 303 303 303 302 303 306 311 310 309 311 307 306 306 310 310 313 314 316 317 314 311 311 312 312 313 313 314 316 319 319 322 321 319 319 322 323 323 322 322 322 322 323
296 295 296 297 296 297 301 302 302 303 303 302 302 304 308 309 309 309 310 310 310 310 311 310 311 310 312 313 315 312 311 310 310 311 312 313 314 315 316 318 319 318 319 319 323 322 320 320 320 320 320 321 321 322
296 297 297 296 299 302 302 302 302 301 302 303 307 306 309 308 307 308 308 309 309 311 310 309 307 310 311 311 311 310 310 310 310 312 313 314 318 317 318 318 318 317 316 318 320 319 320 320 320 320 321 321 320 319
297 297 297 300 302 301 301 300 301 301 301 305 305 305 306 307 307 308 308 308 308 311 310 310 310 310 309 309 309 309 310 312 312 312 313 314 316 317 317 317 316 317 318 318 318 319 320 320 319 318 318 317 317 316
297 297 301 301 300 301 300 300 301 303 304 305 303 303 305 307 308 307 306 306 308 307 308 308 309 309 309 310 311 312 313 313 314 313 313 313 314 315 316 316 316 316 317 317 317 317 316 316 316 316 316 316 316 315
298 300 300 300 300 300 301 302 302 304 304 303 303 305 306 307 305 304 304 305 306 307 308 307 309 309 311 312 313 313 313 313 314 313 313 313 313 313 314 314 315 316 316 316 316 315 315 315 316 315 313 314 314 314
300 300 300 300 300 301 301 302 303 303 302 304 305 306 305 304 304 305 305 304 305 307 309 310 312 313 313 313 313 314 314 314 313 313 313 313 314 314 314 314 313 313 313 313 313 313 313 313 313 313 313 314 314 314
300 300 300 301 301 301 302 303 303 303 303 304 305 305 305 304 303 303 303 303 306 310 313 313 313 313 313 313 313 313 313 313 313 313 313 314 314 313 313 313 314 314 314 315 315 315 315 314 314 314 313 313 313 313
297 299 301 300 302 302 302 302 302 301 304 306 305 305 305 304 303 303 302 304 307 311 313 314 313 313 312 313 314 314 314 314 315 315 315 315 315 314 315 315 315 315 315 314 314 314 312 311 311 310 309 309 309 307
294 302 303 301 302 302 302 304 303 305 307 308 306 305 305 306 305 304 305 307 308 312 313 314 314 314 313 313 313 314 313 314 314 314 314 314 314 313 313 313 312 311 312 312 312 308 306 306 305 304 303 304 304 304
302 302 303 303 302 302 302 303 304 304 309 309 307 306 305 306 306 306 308 308 310 313 314 314 314 314 314 314 314 314 314 314 314 313 313 313 313 313 312 311 310 309 307 306 305 305 305 305 305 305 305 305 305 305
303 303 303 303 303 303 304 305 307 309 309 308 307 307 307 306 307 308 309 310 312 313 314 314 314 313 313 313 313 313 313 313 313 313 311 309 309 310 310 310 308 307 306 305 306 305 305 305 305 305 305 305 305 305
305 306 305 305 305 306 308 309 309 309 309 308 308 307 307 308 308 309 309 310 310 310 309 310 310 308 308 309 311 311 310 308 309 310 310 309 309 309 309 308 308 307 307 306 306 305 305 305 305 305 306 306 306 306
307 307 307 308 308 309 310 309 309 309 309 309 309 309 309 309 308 308 308 308 309 310 310 309 307 306 306 306 306 305 306 306 306 305 306 306 306 306 306 306 306 305 306 306 306 306 306 306 306 306 306 306 306 306
310 310 309 310 310 310 310 310 310 310 310 310 309 308 308 307 307 307 307 307 307 308 308 308 308 308 307 306 306 306 306 307 307 307 306 306 306 307 307 307 307 307 307 308 307 307 307 307 307 307 307 307 306 306
310 310 310 309 310 310 310 310 310 310 309 309 308 307 307 307 308 307 307 307 308 308 307 307 307 307 307 307 307 307 307 307 307 307 308 307 307 307 307 307 307 307 307 307 307 307 307 307 307 307 306 306 304 303
311 311 311 311 311 311 311 311 311 310 310 310 310 310 310 310 310 309 308 309 310 310 309 309 309 308 307 307 307 307 307 306 306 306 306 307 307 307 307 307 307 307 307 307 307 307 307 306 306 305 303 300 298 297
Wind_Speed
11 11 12 10 13 15 14 12 11 11 11 11 11 11 10 10 7 2 4 5 4 4 10 10 9 8 4 2 2 5 4 3 4 3 1 2 1 1 2 1 1 5 5 3 2 2 5 7 7 4 2 1 8 13
10 7 9 11 15 14 12 10 10 10 10 11 11 10 10 10 9 5 4 8 8 8 9 12 17 15 17 12 6 3 2 2 1 3 0 0 1 2 1 2 2 1 3 3 6 5 4 7 8 10 7 5 6 15
11 11 12 12 15 12 11 9 8 9 9 10 10 9 9 10 10 9 4 5 7 7 12 7 1 3 12 18 14 5 2 1 2 2 2 2 1 1 1 3 1 3 1 2 2 3 3 7 8 7 6 5 6 15
12 12 11 12 13 11 11 8 8 9 10 10 10 9 9 9 9 8 5 1 4 4 3 3 2 3 6 10 12 19 4 1 2 4 1 1 1 1 2 3 2 4 2 1 3 5 5 5 2 5 2 4 9 17
14 13 12 12 13 12 11 9 9 8 9 9 9 9 9 8 7 2 4 3 5 5 3 10 3 6 3 2 4 6 21 14 5 4 2 2 2 2 3 2 3 5 5 4 5 6 3 3 3 2 2 6 8 10
14 12 13 13 13 12 11 10 10 9 9 8 8 9 8 6 3 2 1 1 3 6 4 4 5 1 5 1 5 9 12 15 7 2 3 2 1 2 1 3 4 5 3 3 4 4 5 1 4 5 5 4 6 8
13 12 12 13 11 10 9 9 9 9 8 7 7 6 6 3 2 2 2 2 2 3 4 7 11 4 6 2 3 6 9 8 7 4 4 3 3 6 2 4 5 10 13 7 2 4 3 2 3 1 4 6 6 8
14 12 12 10 9 8 8 8 9 8 7 6 4 2 2 4 5 4 3 2 2 3 2 2 4 7 8 3 1 3 6 9 8 7 3 3 1 3 3 11 16 17 11 12 4 5 6 8 7 3 6 6 10 14
15 14 12 10 8 7 8 8 8 6 5 3 2 3 3 3 2 3 3 2 1 2 3 2 2 3 8 4 2 1 2 0 3 4 6 6 2 3 3 13 12 13 12 11 11 7 6 7 7 6 7 8 10 13
16 14 12 10 8 7 7 6 5 2 2 4 5 2 2 2 1 2 1 1 3 2 2 3 3 3 4 5 2 3 0 2 1 4 5 3 3 3 11 11 12 12 13 9 8 10 10 11 11 10 9 9 11 12
15 12 12 10 8 7 6 5 3 2 4 4 3 2 1 2 1 1 1 2 2 2 5 5 6 3 1 1 2 1 1 1 1 2 3 0 1 5 14 15 12 9 9 10 15 16 16 14 12 13 12 11 13 13
15 13 13 10 8 6 5 3 1 3 3 3 1 1 2 1 1 1 1 1 2 3 3 3 3 5 2 2 0 1 1 2 4 1 2 3 2 9 18 18 16 11 8 8 12 21 20 19 15 14 15 14 19 18
16 14 12 10 8 6 4 2 2 4 5 2 1 1 1 1 4 2 2 2 2 6 3 3 3 2 2 2 2 1 1 4 5 2 3 2 2 16 22 22 20 14 12 11 9 12 20 21 16 16 19 17 18 20
16 14 12 10 8 6 4 3 3 5 3 2 2 2 3 2 4 3 3 2 3 4 10 12 5 1 2 2 1 1 3 1 3 1 2 2 14 24 26 23 22 20 16 12 10 10 15 19 16 15 13 11 16 20
17 14 12 11 9 7 5 4 4 6 2 2 2 2 4 5 4 7 8 4 1 5 7 4 2 3 2 1 1 3 2 3 2 2 1 12 21 25 27 25 21 20 17 14 9 9 14 17 14 9 9 10 11 12
16 14 12 11 9 7 6 5 5 3 1 2 3 2 2 1 5 5 1 1 6 8 4 1 2 2 2 1 2 4 2 1 2 2 15 20 22 24 23 19 17 15 14 11 9 7 14 15 12 10 11 13 14 11
17 10 13 11 9 8 7 6 3 1 1 2 2 5 8 8 8 2 2 5 9 6 0 2 2 4 2 2 3 1 2 2 13 22 24 23 26 24 18 13 9 8 5 4 4 12 14 15 15 12 12 12 9 8
14 14 13 11 10 9 7 2 1 1 2 2 3 7 4 3 2 3 7 9 8 4 2 1 1 1 3 3 2 2 7 17 20 23 28 28 20 13 7 3 3 2 4 7 14 19 23 21 18 15 5 11 11 9
16 14 13 12 10 3 2 1 1 1 2 4 4 8 2 2 6 7 8 7 9 6 3 2 1 3 3 2 5 17 20 21 27 30 24 15 10 5 5 5 7 9 13 16 22 24 20 11 2 6 11 13 15 12
13 12 11 9 3 1 1 2 0 2 2 2 4 7 3 2 8 7 7 8 9 3 4 3 3 2 4 17 19 22 24 24 25 12 5 6 12 11 13 13 15 17 20 21 22 20 21 20 19 18 16 14 15 16
13 12 10 5 3 3 2 2 1 2 2 1 4 7 5 5 4 7 7 11 3 2 3 3 8 15 16 16 17 18 16 6 2 5 11 15 16 19 19 21 24 27 30 27 26 24 22 21 19 18 19 23 27 23
14 10 5 3 3 2 2 4 2 2 1 2 4 5 2 3 4 5 10 3 4 4 5 11 15 14 13 10 6 7 11 12 13 17 20 20 24 26 25 24 26 28 29 29 28 29 27 24 23 24 27 25 21 18
9 5 3 3 2 3 1 4 1 4 3 4 4 2 2 4 6 9 3 4 5 11 13 10 6 5 16 16 12 16 16 16 21 23 26 28 28 27 28 30 31 32 32 30 28 27 26 24 23 21 20 19 20 18
3 2 2 2 3 1 2 3 3 2 3 2 1 2 3 5 9 4 2 6 15 16 12 16 21 16 17 18 20 20 22 26 30 31 34 36 35 32 32 31 29 28 27 25 23 24 24 23 23 22 21 21 20 19
1 2 2 2 2 3 3 3 3 2 1 1 2 3 4 6 3 3 3 10 22 22 19 20 21 20 22 22 24 24 27 29 32 32 29 30 30 30 29 27 26 26 25 24 24 23 23 22 20 19 18 17 17 16
3 2 2 1 1 1 1 2 2 2 2 2 3 3 5 3 4 3 6 18 17 21 23 21 23 22 22 22 22 22 22 23 24 27 27 27 26 25 25 25 24 22 18 18 20 18 17 15 15 15 17 16 14 14
1 1 1 1 1 1 0 0 1 1 2 2 1 1 2 4 5 5 11 15 15 20 17 21 24 24 23 22 21 19 17 17 18 21 20 17 16 16 17 20 22 20 17 16 15 15 17 18 19 17 16 14 12 10
1 2 1 1 1 2 1 1 1 1 2 2 3 2 2 3 1 1 13 19 23 23 23 20 21 23 23 21 19 19 21 20 20 20 21 21 20 18 17 17 17 15 14 13 13 12 12 13 11 9 7 5 3 1
1 1 3 1 0 1 1 1 2 2 4 3 3 2 5 11 8 2 13 18 22 21 21 20 19 18 18 17 17 16 14 10 11 15 17 17 16 15 12 12 12 11 11 10 9 9 7 5 4 3 3 3 7 6
4 6 1 4 2 2 4 5 8 10 9 7 6 11 11 11 11 12 14 14 13 11 11 12 13 14 16 17 18 17 16 16 17 18 19 17 14 13 13 12 11 9 7 5 3 1 1 2 3 3 5 6 6 3
6 7 5 7 4 16 20 20 19 18 18 17 19 21 18 18 17 14 13 14 12 11 10 10 10 10 11 11 12 13 14 14 14 13 11 11 11 8 6 5 4 2 1 0 2 5 2 3 4 5 4 4 4 6
16 11 6 6 10 19 21 22 19 18 22 24 21 22 19 14 7 6 12 13 13 14 14 12 12 13 12 11 10 9 9 8 7 6 6 4 1 2 3 3 3 1 2 3 1 2 4 4 5 5 6 7 8 10
8 12 13 9 8 10 9 7 9 7 15 17 15 15 12 7 4 7 9 11 10 10 11 12 13 12 9 7 8 9 8 6 6 6 4 3 2 3 4 5 5 4 4 4 4 5 5 5 6 6 7 7 7 8
Wind_Direction
287 283 300 310 324 329 327 329 331 336 336 350 353 353 355 1 4 278 270 281 299 276 274 247 241 232 219 229 150 325 352 345 2 67 125 267 204 299 17 339 184 176 146 187 86 114 264 6 312 193 256 138 150 145
286 282 302 311 319 321 322 323 328 341 346 348 348 350 352 354 356 342 254 270 279 281 272 272 268 251 241 243 275 312 274 265 337 84 76 212 338 2 145 232 354 257 182 194 181 216 300 310 274 296 293 288 172 161
265 284 290 304 318 316 316 318 326 331 337 337 341 346 348 345 344 341 327 281 301 297 300 293 336 148 227 232 234 237 254 300 349 356 175 169 56 115 194 249 287 328 151 170 42 237 298 290 305 315 311 237 207 183
261 274 287 297 311 308 312 309 315 323 325 329 336 339 342 336 335 334 340 16 344 310 294 253 236 281 206 197 216 227 224 128 9 339 356 135 151 56 254 266 220 207 135 179 272 274 279 279 288 351 49 134 155 167
258 272 282 298 306 299 305 297 301 313 316 327 332 333 335 336 337 20 69 61 22 355 285 298 48 85 100 246 222 206 207 230 301 338 15 262 266 75 336 341 262 188 177 169 229 221 176 216 174 96 115 122 139 156
249 260 280 288 296 292 295 291 294 307 315 321 322 323 330 336 4 106 117 54 31 7 340 319 334 107 34 307 237 216 205 225 233 253 244 257 289 100 77 278 289 348 337 268 302 252 227 198 169 215 235 220 186 186
249 265 277 289 285 289 286 287 294 304 310 312 314 319 329 348 123 68 64 9 16 1 349 310 326 354 14 83 178 198 212 208 217 225 230 217 221 200 186 219 256 351 348 342 33 55 3 167 108 226 212 172 184 175
249 264 281 281 281 281 283 289 298 307 307 304 298 309 59 79 99 77 40 329 3 357 334 343 280 328 14 16 83 190 199 199 213 222 198 205 218 172 264 265 277 273 293 298 275 295 322 322 292 238 230 179 183 181
240 258 271 266 274 275 283 295 305 311 313 293 198 149 97 76 63 14 3 355 209 323 319 302 304 277 356 10 315 254 215 171 213 201 209 163 177 211 274 319 341 289 251 294 245 219 255 287 298 269 231 198 198 183
239 250 251 252 266 268 280 297 307 304 114 132 139 140 133 76 71 57 8 346 211 228 244 245 249 270 337 347 342 340 160 237 251 242 147 154 223 171 6 359 344 316 293 273 205 214 239 256 262 255 257 248 210 206
233 239 232 242 255 258 272 295 302 187 160 160 164 149 171 157 133 230 239 208 212 239 217 238 234 266 309 64 259 337 289 273 283 275 132 248 34 351 354 356 1 336 303 270 252 254 261 270 281 252 237 231 226 227
224 226 225 228 241 243 254 283 238 173 156 152 165 146 150 190 229 257 243 177 220 257 212 208 278 243 283 274 283 277 272 33 247 68 155 174 163 11 360 347 348 342 320 290 267 257 255 254 263 257 236 242 234 224
215 211 216 215 224 224 232 239 175 176 178 169 159 145 111 181 46 228 214 184 328 326 333 348 313 296 259 273 257 46 288 237 318 178 161 90 285 346 348 341 338 332 328 313 299 263 242 239 246 251 251 253 231 214
205 202 206 206 208 208 210 195 174 166 154 171 158 351 156 274 244 207 197 219 225 258 315 318 292 319 317 347 236 292 253 353 280 172 75 296 331 331 331 334 330 324 318 313 304 282 233 218 227 246 242 228 210 205
189 189 192 194 194 192 191 183 171 171 169 164 159 217 222 247 276 286 281 283 344 325 328 317 327 341 304 314 229 317 271 253 29 43 298 332 323 318 320 324 321 317 306 297 294 274 208 204 209 224 201 188 185 194
172 177 183 181 179 177 174 168 166 166 194 205 226 274 267 251 284 347 22 94 5 346 324 357 41 351 276 318 272 227 239 268 88 280 306 313 314 313 314 315 316 307 299 295 294 218 182 190 191 176 171 168 170 178
160 162 167 165 163 163 156 148 156 186 246 241 270 289 295 280 274 293 10 10 349 349 357 105 101 219 319 265 256 265 341 332 310 316 320 317 315 311 310 317 318 302 313 314 157 156 163 156 143 135 137 145 139 139
151 148 151 150 149 143 143 144 157 236 266 273 311 346 56 42 43 31 359 1 351 327 297 254 213 201 234 252 273 355 315 319 319 313 318 322 312 305 304 275 302 356 93 119 144 146 139 131 121 91 108 137 131 147
141 141 139 140 141 135 140 136 146 300 309 343 355 17 14 352 11 351 334 326 318 264 274 229 215 223 239 275 318 317 313 309 310 316 320 317 321 158 153 132 121 116 118 127 142 138 134 114 64 162 171 132 131 130
140 135 133 130 118 108 119 126 133 300 352 346 356 348 336 348 331 321 325 323 319 228 204 223 232 214 294 303 306 304 309 315 320 316 23 85 131 130 128 121 119 121 118 116 117 121 119 117 117 118 120 117 118 120
130 129 122 110 75 58 82 53 105 39 347 316 352 357 317 321 339 342 326 340 335 278 262 263 283 300 303 303 305 306 311 315 30 97 105 105 120 120 119 117 114 111 109 108 108 106 103 102 105 107 110 114 119 110
126 129 107 61 45 42 69 22 6 351 346 7 352 328 322 341 348 331 329 333 293 277 280 295 297 297 314 335 62 101 106 111 111 118 118 120 108 110 116 117 116 111 110 109 110 108 104 105 110 112 109 111 109 114
125 113 67 40 33 32 37 356 40 21 25 332 355 6 25 358 337 350 360 315 277 320 326 305 322 59 96 114 117 113 108 107 105 106 110 109 107 109 111 110 109 108 108 108 108 108 107 110 111 113 112 111 107 103
72 63 48 48 29 332 339 33 14 15 0 359 16 33 13 355 345 15 315 297 330 27 78 108 110 107 107 106 104 102 104 109 108 107 109 108 105 105 105 106 104 105 106 106 104 102 104 106 104 110 109 105 107 109
49 25 36 24 31 34 36 351 0 22 12 350 63 22 4 351 12 4 326 323 360 54 94 114 111 106 105 105 106 106 105 102 100 103 107 104 104 102 100 99 100 103 106 105 106 105 103 103 102 102 103 106 111 111
78 39 29 50 35 59 319 355 37 2 346 71 44 16 355 12 30 4 321 344 6 77 104 109 110 112 103 104 101 105 111 102 98 101 107 110 108 105 105 105 104 100 98 103 107 104 106 106 105 102 99 97 102 109
98 217 23 359 173 141 141 319 357 6 48 69 132 16 15 51 12 316 354 26 54 113 115 107 105 109 106 105 104 108 120 122 109 103 105 98 91 94 104 106 103 102 108 102 97 99 100 103 103 105 107 109 110 113
153 163 154 144 186 189 237 209 182 76 88 143 139 44 65 81 271 48 64 77 86 93 110 111 107 105 101 100 101 106 108 110 110 110 107 96 92 98 99 101 102 106 107 102 98 100 106 112 114 107 103 107 138 200
89 125 145 152 153 227 284 28 49 75 129 120 113 105 113 135 153 99 103 122 115 110 108 108 107 103 102 105 110 108 99 101 127 122 110 105 107 102 103 108 108 107 103 98 100 98 115 130 129 91 55 2 351 343
51 105 80 58 45 337 17 97 118 118 115 119 100 109 102 109 118 117 120 110 123 134 123 117 116 113 109 108 108 107 105 98 92 101 112 116 109 103 96 92 97 113 114 121 119 92 326 273 270 324 328 322 307 274
77 70 62 61 36 53 85 98 107 115 120 122 122 115 111 111 113 115 119 116 110 117 121 125 129 133 134 130 120 118 116 110 105 101 110 120 117 104 82 77 72 71 82 48 290 267 258 313 276 286 310 303 292 299
80 83 65 45 66 86 88 84 86 87 101 105 108 121 123 115 85 113 134 125 111 102 102 107 114 124 120 116 113 110 114 115 111 102 80 83 74 51 32 359 359 358 324 344 319 281 301 307 302 290 290 298 310 315
74 64 93 95 90 83 94 81 79 72 95 103 106 114 113 100 83 152 164 147 127 116 110 106 105 106 116 111 100 96 99 112 119 111 107 105 64 38 24 15 12 359 344 331 321 309 296 291 296 302 314 325 334 340